RYS3099 EPKT-LGZA

Flight info

Callsign RYS3099
Flight time 1h 58m
Altitude 24000
Route BABKO M866 NIDOK/N0445F390 DCT PARAK DCT TISAK DCT BGD DCT NANER DCT REDVA UL616 KOGAT DCT GOSTI DCT BITLA UN731 YNN UT352 ASTUS
Aircraft B738/M-SDE3FGILRWY/SB1

Departure

Time 2026-04-30 11:55
Airport Katowice Wojciech Korfanty International Airport (EPKT)

Arrival

Time 2026-04-30 13:53
Airport Zakynthos International Airport Dionysios Solomos (LGZA)
Time Latitude Longitude Altitude Speed Heading
2026-04-30 11:31 50.47151 19.08183 997 ft 0 kts 180°
2026-04-30 11:46 50.47152 19.08183 997 ft 1 kts 180°
2026-04-30 11:46 50.47167 19.08183 999 ft 3 kts 180°
2026-04-30 11:46 50.47187 19.08183 997 ft 3 kts 180°
2026-04-30 11:46 50.47207 19.08184 1001 ft 3 kts 174°
2026-04-30 11:47 50.47224 19.08177 999 ft 3 kts 136°
2026-04-30 11:47 50.47233 19.08155 997 ft 2 kts 93°
2026-04-30 11:47 50.47233 19.08138 997 ft 3 kts 90°
2026-04-30 11:47 50.47233 19.08112 997 ft 1 kts 90°
2026-04-30 11:48 50.47233 19.08109 997 ft 1 kts 90°
2026-04-30 11:50 50.47233 19.08142 997 ft 9 kts 89°
2026-04-30 11:50 50.47233 19.08276 1000 ft 14 kts 90°
2026-04-30 11:50 50.47232 19.08434 1000 ft 15 kts 90°
2026-04-30 11:51 50.47232 19.08656 1000 ft 25 kts 90°
2026-04-30 11:51 50.47231 19.08932 1001 ft 25 kts 90°
2026-04-30 11:51 50.47230 19.09219 997 ft 30 kts 90°
2026-04-30 11:51 50.47229 19.09537 1002 ft 27 kts 91°
2026-04-30 11:52 50.47229 19.09822 1001 ft 26 kts 90°
2026-04-30 11:52 50.47250 19.10055 997 ft 20 kts 49°
2026-04-30 11:52 50.47332 19.10219 1001 ft 10 kts 53°
2026-04-30 11:52 50.47372 19.10302 999 ft 9 kts 53°
2026-04-30 11:53 50.47412 19.10382 998 ft 10 kts 52°
2026-04-30 11:53 50.47472 19.10452 998 ft 12 kts 360°
2026-04-30 11:53 50.47563 19.10443 1000 ft 14 kts 353°
2026-04-30 11:53 50.47594 19.10387 1002 ft 0 kts 269°
2026-04-30 11:54 50.47594 19.10309 1000 ft 29 kts 270°
2026-04-30 11:54 50.47597 19.09565 998 ft 105 kts 270°
2026-04-30 11:55 50.47603 19.08097 1102 ft 155 kts 271°
2026-04-30 11:55 50.47596 19.06360 1821 ft 166 kts 272°
2026-04-30 11:55 50.47567 19.04535 2683 ft 168 kts 277°
2026-04-30 11:55 50.47541 19.02656 3428 ft 180 kts 275°
2026-04-30 11:56 50.47561 19.00595 4052 ft 199 kts 276°
2026-04-30 11:56 50.47388 18.98339 4353 ft 225 kts 250°
2026-04-30 11:56 50.46372 18.96299 4590 ft 257 kts 218°
2026-04-30 11:56 50.44640 18.95308 5109 ft 276 kts 183°
2026-04-30 11:57 50.42738 18.95719 6010 ft 277 kts 161°
2026-04-30 11:57 50.40930 18.96753 6888 ft 279 kts 155°
2026-04-30 11:57 50.39125 18.97955 7626 ft 285 kts 153°
2026-04-30 11:57 50.37298 18.99197 8450 ft 288 kts 153°
2026-04-30 11:58 50.35445 19.00445 9279 ft 291 kts 153°
2026-04-30 11:58 50.33564 19.01693 10097 ft 296 kts 153°
2026-04-30 11:58 50.31650 19.02945 10784 ft 304 kts 153°
2026-04-30 11:58 50.29619 19.04265 10995 ft 328 kts 154°
2026-04-30 11:59 50.27467 19.05650 11468 ft 340 kts 154°
2026-04-30 11:59 50.25253 19.07059 12163 ft 346 kts 154°
2026-04-30 11:59 50.23015 19.08484 12940 ft 349 kts 154°
2026-04-30 11:59 50.20770 19.09965 13756 ft 352 kts 153°
2026-04-30 12:00 50.18498 19.11465 14504 ft 357 kts 153°
2026-04-30 12:00 50.16188 19.12968 15194 ft 363 kts 153°
2026-04-30 12:00 50.13835 19.14476 15926 ft 367 kts 153°
2026-04-30 12:00 50.11453 19.15982 16680 ft 371 kts 153°
2026-04-30 12:01 50.09044 19.17492 17386 ft 376 kts 153°
2026-04-30 12:01 50.06596 19.19018 18091 ft 382 kts 153°
2026-04-30 12:01 50.04114 19.20560 18783 ft 387 kts 153°
2026-04-30 12:01 50.01603 19.22116 19409 ft 390 kts 153°
2026-04-30 12:02 49.99072 19.23680 20138 ft 390 kts 153°
2026-04-30 12:02 49.96558 19.25230 20997 ft 387 kts 153°
2026-04-30 12:02 49.94064 19.26765 21848 ft 384 kts 153°
2026-04-30 12:02 49.91585 19.28292 22651 ft 383 kts 153°
2026-04-30 12:03 49.89137 19.29800 23391 ft 383 kts 153°
2026-04-30 12:03 49.84174 19.32854 24384 ft 384 kts 152°
2026-04-30 12:03 49.81698 19.34374 24405 ft 382 kts 152°
2026-04-30 12:04 49.79225 19.35891 24435 ft 382 kts 153°
2026-04-30 12:04 49.76751 19.37407 24396 ft 382 kts 153°
2026-04-30 12:04 49.74288 19.38914 24393 ft 380 kts 153°
2026-04-30 12:04 49.71838 19.40411 24412 ft 378 kts 153°
2026-04-30 12:05 49.69391 19.41906 24401 ft 378 kts 153°
2026-04-30 12:05 49.66950 19.43398 24384 ft 378 kts 153°
2026-04-30 12:05 49.64499 19.44892 24395 ft 379 kts 153°
2026-04-30 12:05 49.62038 19.46366 24399 ft 380 kts 156°
2026-04-30 12:06 49.59457 19.47378 24385 ft 387 kts 167°
2026-04-30 12:06 49.56771 19.47926 24438 ft 395 kts 169°
2026-04-30 12:06 49.53993 19.48438 24566 ft 409 kts 169°
2026-04-30 12:06 49.51122 19.48955 24681 ft 423 kts 169°
2026-04-30 12:07 49.48150 19.49494 24795 ft 437 kts 169°
2026-04-30 12:07 49.45087 19.50060 24899 ft 450 kts 169°
2026-04-30 12:07 49.41936 19.50650 24993 ft 462 kts 169°
2026-04-30 12:07 49.38703 19.51262 25073 ft 473 kts 169°
2026-04-30 12:08 49.35405 19.51889 25237 ft 482 kts 170°
2026-04-30 12:08 49.33187 19.52312 25388 ft 486 kts 170°
2026-04-30 12:08 49.29813 19.52955 25678 ft 490 kts 170°
2026-04-30 12:08 49.26432 19.53599 26101 ft 490 kts 170°
2026-04-30 12:09 49.23059 19.54240 26633 ft 487 kts 169°
2026-04-30 12:09 49.18574 19.55092 27350 ft 484 kts 169°
2026-04-30 12:09 49.16364 19.55511 27675 ft 483 kts 169°
2026-04-30 12:09 49.13027 19.56146 28125 ft 483 kts 169°
2026-04-30 12:10 49.09690 19.56781 28577 ft 483 kts 169°
2026-04-30 12:10 49.06358 19.57414 29081 ft 482 kts 169°
2026-04-30 12:10 49.03039 19.58043 29607 ft 480 kts 169°
2026-04-30 12:10 48.99729 19.58669 30114 ft 479 kts 169°
2026-04-30 12:11 48.96424 19.59291 30580 ft 478 kts 169°
2026-04-30 12:11 48.93124 19.59914 30981 ft 477 kts 169°
2026-04-30 12:11 48.89826 19.60536 31293 ft 478 kts 170°
2026-04-30 12:11 48.86519 19.61160 31654 ft 478 kts 170°
2026-04-30 12:12 48.83230 19.61778 32143 ft 475 kts 171°
2026-04-30 12:12 48.79967 19.62389 32626 ft 472 kts 171°
2026-04-30 12:12 48.76701 19.63003 32972 ft 473 kts 171°
2026-04-30 12:12 48.73434 19.63616 33267 ft 474 kts 171°
2026-04-30 12:13 48.70163 19.64229 33584 ft 474 kts 171°
2026-04-30 12:13 48.66880 19.64843 33954 ft 474 kts 171°
2026-04-30 12:13 48.63617 19.65452 34318 ft 473 kts 171°
2026-04-30 12:13 48.60350 19.66060 34596 ft 473 kts 171°
2026-04-30 12:14 48.57070 19.66671 34835 ft 475 kts 171°
2026-04-30 12:14 48.53788 19.67281 35044 ft 476 kts 171°
2026-04-30 12:14 48.50505 19.67890 35314 ft 476 kts 171°
2026-04-30 12:14 48.47219 19.68499 35601 ft 475 kts 171°
2026-04-30 12:15 48.43944 19.69105 35915 ft 474 kts 172°
2026-04-30 12:15 48.40673 19.69709 36159 ft 474 kts 172°
2026-04-30 12:15 48.37389 19.70316 36362 ft 476 kts 172°
2026-04-30 12:15 48.34103 19.70922 36622 ft 476 kts 172°
2026-04-30 12:16 48.30820 19.71527 36917 ft 475 kts 172°
2026-04-30 12:16 48.27547 19.72128 37183 ft 474 kts 172°
2026-04-30 12:16 48.24266 19.72731 37377 ft 475 kts 172°
2026-04-30 12:16 48.20983 19.73334 37593 ft 476 kts 172°
2026-04-30 12:17 48.14447 19.74530 38048 ft 476 kts 172°
2026-04-30 12:17 48.11158 19.75131 38253 ft 477 kts 172°
2026-04-30 12:17 48.07824 19.75739 38453 ft 477 kts 172°
2026-04-30 12:18 48.04568 19.76332 38634 ft 478 kts 172°
2026-04-30 12:18 48.01263 19.76934 38847 ft 478 kts 172°
2026-04-30 12:18 47.97975 19.77531 39120 ft 475 kts 172°
2026-04-30 12:18 47.94695 19.78127 39307 ft 474 kts 172°
2026-04-30 12:19 47.88112 19.79320 39332 ft 478 kts 172°
2026-04-30 12:19 47.81515 19.80512 39344 ft 476 kts 173°
2026-04-30 12:20 47.74956 19.81694 39331 ft 473 kts 173°
2026-04-30 12:20 47.68440 19.82866 39324 ft 470 kts 173°
2026-04-30 12:21 47.61961 19.84028 39324 ft 468 kts 173°
2026-04-30 12:21 47.55513 19.85182 39320 ft 466 kts 173°
2026-04-30 12:22 47.49095 19.86327 39332 ft 464 kts 173°
2026-04-30 12:22 47.42689 19.87468 39334 ft 463 kts 173°
2026-04-30 12:23 47.36280 19.88606 39337 ft 464 kts 173°
2026-04-30 12:23 47.29863 19.89743 39338 ft 465 kts 174°
2026-04-30 12:24 47.23420 19.90881 39343 ft 467 kts 174°
2026-04-30 12:24 47.16963 19.92020 39343 ft 468 kts 174°
2026-04-30 12:25 47.10483 19.93159 39345 ft 470 kts 174°
2026-04-30 12:25 47.03982 19.94300 39347 ft 471 kts 174°
2026-04-30 12:26 46.97463 19.95441 39344 ft 472 kts 174°
2026-04-30 12:26 46.90938 19.96580 39345 ft 472 kts 174°
2026-04-30 12:27 46.84414 19.97717 39345 ft 472 kts 174°
2026-04-30 12:27 46.77884 19.98851 39339 ft 472 kts 174°
2026-04-30 12:28 46.71409 19.99973 39338 ft 471 kts 174°
2026-04-30 12:28 46.64897 20.01099 39315 ft 471 kts 175°
2026-04-30 12:29 46.58400 20.02219 39325 ft 470 kts 175°
2026-04-30 12:29 46.51916 20.03335 39331 ft 469 kts 175°
2026-04-30 12:30 46.45435 20.04447 39320 ft 469 kts 175°
2026-04-30 12:30 46.38956 20.05557 39317 ft 468 kts 175°
2026-04-30 12:31 46.32485 20.06662 39325 ft 468 kts 175°
2026-04-30 12:31 46.26016 20.07765 39313 ft 468 kts 175°
2026-04-30 12:32 46.19542 20.08866 39302 ft 468 kts 175°
2026-04-30 12:32 46.13067 20.09982 39318 ft 469 kts 175°
2026-04-30 12:33 46.06587 20.11160 39326 ft 470 kts 174°
2026-04-30 12:33 46.00095 20.12347 39318 ft 471 kts 174°
2026-04-30 12:34 45.93630 20.13518 39331 ft 472 kts 174°
2026-04-30 12:34 45.87070 20.14698 39320 ft 473 kts 175°
2026-04-30 12:35 45.80580 20.15863 39323 ft 474 kts 175°
2026-04-30 12:35 45.74037 20.17035 39310 ft 474 kts 175°
2026-04-30 12:36 45.67492 20.18205 39314 ft 474 kts 175°
2026-04-30 12:36 45.60945 20.19372 39315 ft 474 kts 175°
2026-04-30 12:37 45.54403 20.20536 39296 ft 473 kts 175°
2026-04-30 12:37 45.47871 20.21695 39309 ft 472 kts 175°
2026-04-30 12:38 45.41353 20.22845 39316 ft 472 kts 175°
2026-04-30 12:38 45.34831 20.23801 39289 ft 470 kts 177°
2026-04-30 12:39 45.28324 20.24671 39304 ft 469 kts 177°
2026-04-30 12:39 45.21838 20.25556 39303 ft 468 kts 177°
2026-04-30 12:40 45.15368 20.26456 39302 ft 467 kts 177°
2026-04-30 12:40 45.08912 20.27357 39305 ft 465 kts 177°
2026-04-30 12:41 45.02474 20.28253 39304 ft 464 kts 177°
2026-04-30 12:41 44.96046 20.29145 39300 ft 464 kts 177°
2026-04-30 12:42 44.89623 20.30033 39294 ft 463 kts 177°
2026-04-30 12:42 44.83211 20.30919 39295 ft 463 kts 177°
2026-04-30 12:43 44.76798 20.31902 39295 ft 464 kts 176°
2026-04-30 12:43 44.70392 20.33020 39285 ft 464 kts 176°
2026-04-30 12:44 44.63986 20.34137 39292 ft 464 kts 176°
2026-04-30 12:44 44.57578 20.35232 39300 ft 464 kts 176°
2026-04-30 12:45 44.51162 20.36316 39289 ft 464 kts 176°
2026-04-30 12:45 44.44795 20.37388 39288 ft 464 kts 176°
2026-04-30 12:46 44.38386 20.38466 39290 ft 463 kts 176°
2026-04-30 12:46 44.31990 20.39540 39293 ft 463 kts 176°
2026-04-30 12:47 44.25604 20.40610 39285 ft 462 kts 177°
2026-04-30 12:47 44.19229 20.41675 39279 ft 461 kts 177°
2026-04-30 12:48 44.12855 20.42739 39294 ft 461 kts 177°
2026-04-30 12:48 44.06492 20.43797 39285 ft 460 kts 177°
2026-04-30 12:49 44.00133 20.44854 39295 ft 460 kts 177°
2026-04-30 12:49 43.93763 20.45909 39294 ft 462 kts 177°
2026-04-30 12:50 43.87385 20.46922 39289 ft 461 kts 178°
2026-04-30 12:50 43.81007 20.47792 39288 ft 461 kts 179°
2026-04-30 12:51 43.74623 20.48643 39294 ft 461 kts 179°
2026-04-30 12:51 43.68244 20.49510 39277 ft 461 kts 179°
2026-04-30 12:52 43.61857 20.50386 39287 ft 461 kts 179°
2026-04-30 12:52 43.55481 20.51261 39282 ft 461 kts 179°
2026-04-30 12:53 43.49135 20.52129 39257 ft 461 kts 179°
2026-04-30 12:53 43.42755 20.53000 39270 ft 461 kts 179°
2026-04-30 12:54 43.36378 20.53868 39266 ft 460 kts 179°
2026-04-30 12:54 43.30001 20.54735 39254 ft 460 kts 179°
2026-04-30 12:55 43.23629 20.55599 39264 ft 460 kts 179°
2026-04-30 12:55 43.17266 20.56460 39267 ft 460 kts 180°
2026-04-30 12:56 43.11974 20.57175 39275 ft 460 kts 180°
2026-04-30 12:56 43.05608 20.58033 39266 ft 460 kts 180°
2026-04-30 12:57 42.99275 20.59550 39252 ft 469 kts 165°
2026-04-30 12:57 42.93173 20.62780 39256 ft 471 kts 163°
2026-04-30 12:58 42.87086 20.66110 39239 ft 471 kts 163°
2026-04-30 12:58 42.80990 20.69371 39259 ft 470 kts 163°
2026-04-30 12:59 42.74901 20.72578 39252 ft 469 kts 164°
2026-04-30 12:59 42.68815 20.75764 39244 ft 468 kts 164°
2026-04-30 13:00 42.62742 20.78940 39262 ft 468 kts 164°
2026-04-30 13:00 42.56661 20.82114 39253 ft 469 kts 164°
2026-04-30 13:01 42.50575 20.85286 39266 ft 469 kts 164°
2026-04-30 13:01 42.44489 20.88452 39261 ft 468 kts 165°
2026-04-30 13:02 42.38397 20.91613 39263 ft 469 kts 165°
2026-04-30 13:02 42.32297 20.94772 39268 ft 471 kts 165°
2026-04-30 13:03 42.26173 20.97937 39244 ft 472 kts 165°
2026-04-30 13:03 42.20039 21.01102 39256 ft 472 kts 165°
2026-04-30 13:04 42.13902 21.04260 39236 ft 472 kts 165°
2026-04-30 13:04 42.07662 21.06410 39265 ft 456 kts 179°
2026-04-30 13:05 42.01349 21.07386 39252 ft 457 kts 180°
2026-04-30 13:06 41.91849 21.08957 39234 ft 460 kts 179°
2026-04-30 13:06 41.85525 21.10054 39222 ft 462 kts 179°
2026-04-30 13:07 41.79182 21.11214 39215 ft 462 kts 176°
2026-04-30 13:07 41.72820 21.12903 39223 ft 464 kts 174°
2026-04-30 13:08 41.66543 21.14706 39181 ft 464 kts 174°
2026-04-30 13:08 41.60226 21.16462 39177 ft 463 kts 175°
2026-04-30 13:09 41.53931 21.18164 39173 ft 461 kts 175°
2026-04-30 13:09 41.47658 21.19845 39171 ft 459 kts 175°
2026-04-30 13:10 41.41413 21.21519 39135 ft 457 kts 175°
2026-04-30 13:10 41.35185 21.23192 39137 ft 456 kts 175°
2026-04-30 13:11 41.28972 21.24841 39139 ft 454 kts 175°
2026-04-30 13:11 41.22779 21.26487 39122 ft 454 kts 175°
2026-04-30 13:12 41.16593 21.28133 39117 ft 453 kts 175°
2026-04-30 13:12 41.10423 21.29770 39114 ft 452 kts 175°
2026-04-30 13:13 41.01197 21.32213 39090 ft 450 kts 175°
2026-04-30 13:14 40.92036 21.34632 39086 ft 445 kts 175°
2026-04-30 13:14 40.83027 21.35051 39092 ft 424 kts 195°
2026-04-30 13:15 40.74242 21.33209 39075 ft 428 kts 196°
2026-04-30 13:16 40.68353 21.32027 39062 ft 428 kts 195°
2026-04-30 13:16 40.62449 21.30874 39073 ft 430 kts 195°
2026-04-30 13:17 40.53530 21.29137 39045 ft 433 kts 195°
2026-04-30 13:18 40.44665 21.27148 39026 ft 428 kts 204°
2026-04-30 13:18 40.36637 21.22425 39017 ft 422 kts 212°
2026-04-30 13:19 40.31213 21.19382 39016 ft 426 kts 209°
2026-04-30 13:19 40.25952 21.15964 38999 ft 423 kts 213°
2026-04-30 13:20 40.20609 21.12656 39029 ft 426 kts 210°
2026-04-30 13:20 40.15123 21.09576 39023 ft 431 kts 210°
2026-04-30 13:21 40.09599 21.06492 39029 ft 433 kts 210°
2026-04-30 13:22 40.01288 21.01797 39011 ft 434 kts 210°
2026-04-30 13:22 39.92967 20.97089 39050 ft 435 kts 210°
2026-04-30 13:23 39.84671 20.92400 39068 ft 431 kts 210°
2026-04-30 13:24 39.73468 20.86086 39086 ft 447 kts 209°
2026-04-30 13:25 39.61934 20.79618 39072 ft 454 kts 209°
2026-04-30 13:26 39.47367 20.71483 39051 ft 457 kts 209°
2026-04-30 13:28 39.32828 20.63398 39033 ft 455 kts 209°
2026-04-30 13:28 39.24100 20.58561 39022 ft 455 kts 209°
2026-04-30 13:29 39.12509 20.52157 39032 ft 452 kts 209°
2026-04-30 13:31 38.98077 20.44231 39042 ft 450 kts 208°
2026-04-30 13:31 38.89565 20.39588 38170 ft 431 kts 209°
2026-04-30 13:32 38.84021 20.36544 35855 ft 438 kts 208°
2026-04-30 13:32 38.78346 20.33422 33327 ft 448 kts 207°
2026-04-30 13:33 38.72563 20.30255 30417 ft 457 kts 207°
2026-04-30 13:33 38.66729 20.27072 27354 ft 458 kts 207°
2026-04-30 13:34 38.63769 20.25456 25938 ft 456 kts 207°
2026-04-30 13:34 38.55155 20.20767 23411 ft 434 kts 206°
2026-04-30 13:35 38.52432 20.19292 23270 ft 417 kts 207°
2026-04-30 13:35 38.47200 20.16448 22116 ft 405 kts 207°
2026-04-30 13:36 38.41906 20.13569 19918 ft 421 kts 207°
2026-04-30 13:36 38.39336 20.11857 19164 ft 412 kts 219°
2026-04-30 13:36 38.35161 20.07107 17883 ft 398 kts 222°
2026-04-30 13:37 38.32798 20.05256 17169 ft 403 kts 204°
2026-04-30 13:37 38.27314 20.04584 16684 ft 409 kts 174°
2026-04-30 13:38 38.21996 20.07472 16182 ft 428 kts 144°
2026-04-30 13:38 38.19711 20.09889 15945 ft 426 kts 142°
2026-04-30 13:38 38.15249 20.14812 15427 ft 424 kts 141°
2026-04-30 13:39 38.10803 20.19691 14680 ft 419 kts 142°
2026-04-30 13:39 38.06396 20.24457 13871 ft 413 kts 142°
2026-04-30 13:40 38.04221 20.26796 13418 ft 406 kts 142°
2026-04-30 13:40 38.02812 20.28308 13130 ft 395 kts 142°
2026-04-30 13:40 38.00756 20.30515 12705 ft 381 kts 142°
2026-04-30 13:40 37.98732 20.32683 12352 ft 379 kts 142°
2026-04-30 13:41 37.96757 20.34796 11969 ft 364 kts 143°
2026-04-30 13:41 37.94848 20.36838 11616 ft 358 kts 143°
2026-04-30 13:41 37.92953 20.38862 11276 ft 354 kts 143°
2026-04-30 13:41 37.91084 20.40855 10927 ft 349 kts 143°
2026-04-30 13:42 37.89243 20.42819 10584 ft 344 kts 143°
2026-04-30 13:42 37.87420 20.44762 10243 ft 340 kts 143°
2026-04-30 13:42 37.83851 20.48563 9752 ft 337 kts 143°
2026-04-30 13:43 37.82048 20.50479 9374 ft 338 kts 143°
2026-04-30 13:43 37.80262 20.52378 9027 ft 333 kts 142°
2026-04-30 13:43 37.78504 20.54246 8705 ft 328 kts 142°
2026-04-30 13:43 37.76769 20.56089 8369 ft 324 kts 142°
2026-04-30 13:44 37.75060 20.57904 8037 ft 320 kts 142°
2026-04-30 13:44 37.73362 20.59705 7706 ft 316 kts 142°
2026-04-30 13:44 37.71688 20.61479 7397 ft 312 kts 142°
2026-04-30 13:44 37.70038 20.63228 7079 ft 308 kts 142°
2026-04-30 13:45 37.66851 20.66602 6482 ft 291 kts 141°
2026-04-30 13:45 37.65320 20.68222 6179 ft 283 kts 141°
2026-04-30 13:45 37.63834 20.69792 5890 ft 275 kts 142°
2026-04-30 13:46 37.62387 20.71321 5617 ft 268 kts 141°
2026-04-30 13:46 37.60976 20.72811 5357 ft 262 kts 141°
2026-04-30 13:46 37.59586 20.74277 5101 ft 260 kts 141°
2026-04-30 13:46 37.58197 20.75742 4828 ft 259 kts 141°
2026-04-30 13:47 37.56912 20.77321 4533 ft 259 kts 122°
2026-04-30 13:47 37.56356 20.79440 4373 ft 252 kts 97°
2026-04-30 13:47 37.56189 20.81608 4262 ft 245 kts 94°
2026-04-30 13:47 37.56072 20.83715 4149 ft 238 kts 93°
2026-04-30 13:48 37.55950 20.85767 4050 ft 232 kts 93°
2026-04-30 13:48 37.55823 20.87757 3942 ft 225 kts 93°
2026-04-30 13:48 37.55693 20.89723 3865 ft 225 kts 94°
2026-04-30 13:48 37.55597 20.91694 3636 ft 225 kts 84°
2026-04-30 13:49 37.56161 20.93461 3410 ft 217 kts 41°
2026-04-30 13:49 37.57454 20.94242 3196 ft 207 kts 359°
2026-04-30 13:49 37.58866 20.94013 3001 ft 205 kts 347°
2026-04-30 13:49 37.60252 20.93597 2774 ft 203 kts 342°
2026-04-30 13:50 37.61586 20.93129 2576 ft 196 kts 342°
2026-04-30 13:50 37.64173 20.92226 2089 ft 189 kts 342°
2026-04-30 13:50 37.65426 20.91792 1838 ft 183 kts 342°
2026-04-30 13:51 37.66633 20.91374 1586 ft 177 kts 341°
2026-04-30 13:51 37.67770 20.90979 1373 ft 163 kts 341°
2026-04-30 13:51 37.68816 20.90619 1167 ft 150 kts 341°
2026-04-30 13:51 37.69792 20.90280 967 ft 142 kts 341°
2026-04-30 13:52 37.70749 20.89944 791 ft 144 kts 339°
2026-04-30 13:52 37.71740 20.89591 645 ft 151 kts 345°
2026-04-30 13:52 37.72750 20.89267 405 ft 147 kts 344°
2026-04-30 13:52 37.73714 20.88935 180 ft 141 kts 344°
2026-04-30 13:53 37.74660 20.88589 26 ft 138 kts 340°
2026-04-30 13:53 37.75439 20.88295 20 ft 86 kts 343°
2026-04-30 13:53 37.75801 20.88162 22 ft 38 kts 343°
2026-04-30 13:53 37.75891 20.88113 21 ft 7 kts 256°
2026-04-30 13:54 37.75850 20.88123 21 ft 7 kts 126°
2026-04-30 13:54 37.75810 20.88157 23 ft 7 kts 175°
2026-04-30 13:54 37.75759 20.88178 23 ft 11 kts 159°
2026-04-30 13:54 37.75644 20.88220 22 ft 20 kts 165°
2026-04-30 13:55 37.75509 20.88271 20 ft 17 kts 152°
2026-04-30 13:55 37.75469 20.88377 21 ft 10 kts 106°
2026-04-30 13:55 37.75445 20.88413 20 ft 5 kts 159°
2026-04-30 13:55 37.75432 20.88432 19 ft 3 kts 99°
2026-04-30 13:56 37.75439 20.88471 19 ft 5 kts 70°
2026-04-30 13:56 37.75448 20.88506 21 ft 2 kts 73°